Location: Goll?ig?dem
(16.6773°N, 80.7332°E)
Time: 00:48:01
(UTC+00:00)

Cosmos 407 Rocket - Pass Details

Date: 21 April 2021
Orbit: 743 x 787 km, 74.0° (Epoch: 08 May)

Event Time Altitude Azimuth Distance (km) Brightness Sun altitude
Rises 13:47:20 0° 170° (S) 3,169 6.4 -13.2°
Reaches altitude 10° 13:49:58 10° 158° (SSE) 2,246 5.6 -13.8°
Maximum altitude 13:54:16 28° 100° (E) 1,366 4.2 -14.8°
Drops below altitude 10° 13:58:35 10° 42° (NE) 2,255 5.7 -15.7°
Sets 14:01:13 0° 31° (NNE) 3,184 6.6 -16.3°
